カタログに戻る

DELTA 1 DEB

運用中PO
NORAD 19365·DEBRIS·🇺🇸 United States

打ち上げ Jan 22, 1975 から Vandenberg Space Force Base

Loading…

次のパス (今後24時間)

TLE

最新Source: Space-Track

元期: Sep 14, 2026, 06:15 UTC

1 19365U 75004HQ  26257.26047160  .00001000  00000-0  33203-3 0  9993
2 19365  97.7016 184.1159 0133062  69.3370 292.2026 14.34674565992488

AllMySatでDELTA 1 DEBをリアルタイム追跡

Download on the App Store